Regional Weather Roundup
Issued by NWS

Home | Current Version | Previous Version | Text Only | Print | Product List | Glossary On
Versions: 1 2 3 4 5 6 7 8 9 10 11 12 13 14 15 16 17 18 19 20 21 22 23 24 25 26 27 28 29 30 31 32 33 34 35 36 37 38 39 40 41 42 43 44 45 46 47 48 49 50
000
ASUS45 KCYS 221710
RWRWY

WYOMING REGIONAL WEATHER ROUNDUP
NATIONAL WEATHER SERVICE CHEYENNE WY
1100 AM MDT TUE JUL 22 2014

NOTE:  "FAIR" INDICATES FEW OR NO CLOUDS BELOW 12,000 FEET
WITH NO SIGNIFICANT WEATHER AND/OR OBSTRUCTIONS TO VISIBILITY.

WYZ001-221800-
YELLOWSTONE NATIONAL PARK

CITY           SKY/WX    TMP DP  RH WIND       PRES   REMARKS
LK YELLOWSTONE   N/A     66  42  41 VRB6      30.50R
W YELLOWSTONE  NOT AVBL

$$
WYZ002>013-054>058-071-098>099-221800-
NORTHERN WYOMING

CITY           SKY/WX    TMP DP  RH WIND       PRES   REMARKS
JACKSON        SUNNY     68  48  49 SE6       30.40S
CODY           SUNNY    N/A N/A N/A SE8       30.24S
GREYBULL       SUNNY     85  48  27 SE10      30.18F
WORLAND        SUNNY     85  49  28 NW5       30.20F
SHERIDAN       MOSUNNY   74  57  55 N7        30.21R
BUFFALO        MOSUNNY   84  51  31 SE17G23   30.26F
GILLETTE       MOSUNNY   84  54  35 S13G20    30.25F
HULETT         FAIR      79  59  50 MISG      30.28
NEWCASTLE      FAIR      81  54  39 CALM      30.28

$$
WYZ014>020-022>026-101>103-221800-
CENTRAL WYOMING

CITY           SKY/WX    TMP DP  RH WIND       PRES   REMARKS
BIG PINEY      SUNNY     73  36  25 S8        30.44F
PINEDALE       SUNNY     72  36  26 CALM      30.45F
DUBOIS         FAIR      73  34  23 W16G25    30.42S
LANDER         SUNNY     78  42  27 N5        30.30F
RIVERTON       SUNNY     76  45  33 CALM      30.32S
CASPER         SUNNY     79  50  36 NE6       30.31S
DOUGLAS        SUNNY     82  53  36 SE14      30.31S

$$
WYZ021-027>030-104>119-221800-
SOUTHERN WYOMING

CITY           SKY/WX    TMP DP  RH WIND       PRES   REMARKS
EVANSTON       SUNNY     73  36  25 W7        30.44R
KEMMERER       SUNNY     73  34  23 SW5       30.46S
ROCK SPRINGS   SUNNY     78  35  21 NW6       30.41S
DIXON          FAIR      85  26  11 S10       30.42F
RAWLINS        SUNNY     80  35  19 S6        30.42S
SARATOGA       FAIR      79  34  19 NE3       30.44S
LARAMIE        SUNNY     75  41  29 VRB3      30.45S
CHEYENNE       SUNNY     77  57  50 NE10G17   30.39R
TORRINGTON     MOSUNNY   83  55  38 MISG      30.27R
PINE BLUFFS    FAIR      79  55  44 SE6       30.34R

$$



USA.gov is the U.S. government's official web portal to all federal, state and local government web resources and services.